Regional Weather Roundup
Issued by NWS

Home | Current Version | Previous Version | Text Only | Print | Product List | Glossary Off
Versions: 1 2 3 4 5 6 7 8 9 10 11 12 13 14 15 16 17 18 19 20 21 22 23 24 25 26 27 28 29 30 31 32 33 34 35 36 37 38 39 40 41 42 43 44 45 46 47 48 49 50

851
ASUS43 KDTX 172310
RWRMI
MICHIGAN HOURLY REGIONAL WEATHER ROUNDUP
NATIONAL WEATHER SERVICE DETROIT/PONTIAC MI
600 PM EST FRI NOV 17 2017

NOTE: "FAIR" INDICATES FEW OR NO CLOUDS BELOW 12,000 FEET WITH NO
SIGNIFICANT WEATHER AND/OR OBSTRUCTION TO VISIBILITY.

MIZ047>049-052>055-059>063-066>070-074>076-081>083-180000-
SOUTHEAST LOWER MICHIGAN

CITY           SKY/WX    TMP DP  RH WIND       PRES   REMARKS
ADRIAN         CLOUDY    42  34  73 S7        29.95F
ALMA           CLOUDY    39  33  79 SE8       29.85F WCI  33
ANN ARBOR      CLOUDY    40  32  73 SE6       29.95F
BAD AXE        PTCLDY    38  32  80 S15       29.92F WCI  29
CARO           CLOUDY    40  31  71 S12       29.90F WCI  32
DETROIT CITY   MOCLDY    40  33  76 S8        29.97F WCI  34
DETROIT        CLOUDY    40  33  76 S5        29.98F
FLINT          CLOUDY    39  30  70 S15       29.92F WCI  31
GROSSE ILE     CLOUDY    42  36  77 S10       29.96F
HILLSDALE      CLOUDY    41  32  70 SE8G17    29.89F
HOWELL         CLOUDY    38  32  78 SE10      29.91F WCI  32

CITY           SKY/WX    TMP DP  RH WIND       PRES   REMARKS
JACKSON        CLOUDY    41  33  73 SE9       29.89F
LAMBERTVILLE   MOCLDY    45  34  64 S5        29.96F
LANSING        CLOUDY    40  33  76 SE14      29.87F WCI  32
LAPEER         FAIR      39  31  73 S8        29.94F WCI  33
MASON          CLOUDY    41  33  73 SE12      29.89F
MONROE         MOCLDY    44  34  68 S6        29.96F
MT. CLEMENS    CLOUDY    41  35  80 S13       29.94F
PONTIAC        CLOUDY    39  32  76 S12G20    29.94F WCI  32
PORT HOPE        N/A     39  31  72 S8        29.89F WCI  33
PORT HURON     CLOUDY    39  32  75 S12       29.96F WCI  32
TRI CITIES     MOCLDY    40  32  73 S15       29.88F WCI  32
MIDLAND        CLOUDY    40  31  69 S12       29.86F WCI  34
TROY           MOCLDY    42  33  68 S9        29.98F
SAGINAW HB     CLOUDY    39  32  75 S10       29.89F WCI  32
$$
MIZ043>046-050>051-056>058-064>065-071>073-077>080-180000-
SOUTHWEST LOWER MICHIGAN

CITY           SKY/WX    TMP DP  RH WIND       PRES   REMARKS
BATTLE CREEK   CLOUDY    42  34  73 SE13      29.84F
BENTON HARBOR  CLOUDY    43  36  76 SE12G20   29.78F
BIG RAPIDS     CLOUDY    39  30  71 S12       29.80F WCI  31
COLDWATER      CLOUDY    43  33  67 SE12G18   29.87F
FREMONT        LGT RAIN  40  35  83 SE7       29.79F WCI  35
HOLLAND        RAIN      42  35  76 S12       29.82F
GRAND RAPIDS   CLOUDY    42  34  73 SE13      29.83F
IONIA          MOCLDY    40  32  74 SE13      29.83F WCI  32
KALAMAZOO      CLOUDY    43  32  65 S10G18    29.84F
LUDINGTON      LGT RAIN  38  34  86 SE9       29.74F WCI  32
MARSHALL       CLOUDY    41  33  71 SE10      29.86F
MOUNT PLEASANT CLOUDY    40  31  68 SE13      29.83F WCI  33
MUSKEGON       LGT RAIN  41  35  79 SE12      29.79F
SOUTH HAVEN    LGT RAIN  43  35  73 SE8       29.79F
$$
MIZ016>042-180000-
NORTHERN LOWER MICHIGAN

CITY           SKY/WX    TMP DP  RH WIND       PRES   REMARKS
ALPENA         CLOUDY    36  30  79 S17       29.85F WCI  26
BEAVER ISLAND  DRIZZLE   39  34  82 SE9G18    29.73F WCI  33
BELLAIRE       FLURRIES  38  32  80 S12       29.76F WCI  30
CADILLAC       LGT RAIN  36  31  82 SE12      29.76F WCI  27
CHARLEVOIX     LGT RAIN  37  31  78 SE9       29.77F WCI  31
FRANKFORT      CLOUDY    39  35  83 S13G24    29.70F WCI  32
GAYLORD        LGT RAIN  33  27  78 S15G28    29.77F WCI  23
GRAYLING       CLOUDY    35  28  78 SE9       29.80F WCI  27
HARBOR SPRINGS FLURRIES  36  29  76 E3        29.76F
HOUGHTON LAKE  CLOUDY    36  29  75 SE10      29.80F WCI  28
MANISTEE       RAIN      38  34  85 SE7       29.73F WCI  33
OSCODA         MOCLDY    38  30  73 S14       29.88F WCI  30
PELLSTON       LGT RAIN  36  29  75 SE8       29.77F WCI  30
ROGERS CITY    CLOUDY    35  29  80 S16G22    29.82F WCI  25
TRAVERSE CITY  LGT RAIN  38  32  79 SE10G16   29.73F WCI  31
$$
MIZ007>008-015-180000-
EASTERN UPPER MICHIGAN

CITY           SKY/WX    TMP DP  RH WIND       PRES   REMARKS
KINROSS        CLOUDY    35  30  82 SE18      29.77F WCI  24
MACKINAC ISLAN CLOUDY    36  28  73 SE14G20   29.77F WCI  27
NEWBERRY       CLOUDY    33  32  97 SE6       29.73F WCI  27
S. S. MARIE    CLOUDY    37  30  75 SE13G22   29.80S WCI  29
MUNISING         N/A     39  39 100 S6        29.69F WCI  35
$$
MIZ004>006-011>014-085-180000-
CENTRAL UPPER MICHIGAN

CITY           SKY/WX    TMP DP  RH WIND       PRES   REMARKS
MANISTIQUE     LGT RAIN  39  33  81 S15       29.72R WCI  30
ESCANABA       LGT RAIN  41  40  96 SW13      29.70R FOG
MENOMINEE      LGT RAIN  40  38  93 SW8       29.69S FOG     WCI  34
SAWYER-GWINN   DRIZZLE   36  36 100 S8        29.67F WCI  29
$$
MIZ001>003-009>011-084-180000-
WESTERN UPPER MICHIGAN

CITY           SKY/WX    TMP DP  RH WIND       PRES   REMARKS
IRON MOUNTAIN  LGT RAIN  34  32  92 SE3       29.65F FOG
HOUGHTON       LGT SNOW  33  31  92 CALM      29.64R VSB 3/4
COPPER HARBOR    N/A     33  32  96 SW8       29.66S WCI  26
IRONWOOD       LGT SNOW N/A N/A N/A CALM      29.63S
$$

ABBREVIATIONS USED IN REMARKS
   TC - TEMPERATURE IN CELSIUS
  WCI - WIND CHILL INDEX
   HX - HEAT INDEX
  VSB - VISIBILITY





USA.gov is the U.S. government's official web portal to all federal, state and local government web resources and services.